Location: ??????????
(54.4061°N, 22.6114°E)
Time: 19:41:25
(UTC+00:00)

CSL-04 Rocket - Pass Details

Date: 23 October 2019
Orbit: 805 x 861 km, 99.0° (Epoch: 18 November)

Event Time Altitude Azimuth Distance (km) Brightness Sun altitude
Rises 16:34:35 0° 159° (SSE) 3,415 6.7 -12.3°
Reaches altitude 10° 16:36:58 10° 159° (SSE) 2,477 6.0 -12.6°
Maximum altitude 16:42:28 86° 72° (ENE) 854 3.7 -13.5°
Drops below altitude 10° 16:47:57 10° 344° (NNW) 2,460 6.3 -14.2°
Sets 16:50:18 0° 344° (NNW) 3,390 7.1 -14.6°
